CFG1HP EGKK-EDDF

Flight info

Callsign CFG1HP
Flight time 0h 57m
Altitude 35000
Route MIMFO Y312 DVR UL9 KONAN UL607 KOK DCT REMBA UL607 SPI T180 NIVNU/N0403F230 T847 IMCOM IMCOM1B
Aircraft A319/M-SDE3FGHIRWY/LB1

Departure

Time 2026-04-16 14:47
Airport London Gatwick Airport (EGKK)

Arrival

Time 2026-04-16 15:44
Airport Frankfurt Main Airport (EDDF)
Time Latitude Longitude Altitude Speed Heading
2026-04-16 13:54 51.15834 -0.17630 204 ft 0 kts 348°
2026-04-16 14:38 51.15833 -0.17630 204 ft 2 kts 348°
2026-04-16 14:38 51.15809 -0.17621 216 ft 4 kts 348°
2026-04-16 14:38 51.15783 -0.17612 214 ft 4 kts 347°
2026-04-16 14:38 51.15758 -0.17608 212 ft 4 kts 21°
2026-04-16 14:39 51.15744 -0.17628 216 ft 1 kts 77°
2026-04-16 14:39 51.15741 -0.17654 212 ft 0 kts 77°
2026-04-16 14:42 51.15741 -0.17653 212 ft 0 kts 77°
2026-04-16 14:42 51.15742 -0.17649 213 ft 1 kts 77°
2026-04-16 14:42 51.15745 -0.17625 216 ft 4 kts 77°
2026-04-16 14:42 51.15752 -0.17572 209 ft 6 kts 77°
2026-04-16 14:43 51.15739 -0.17514 213 ft 7 kts 140°
2026-04-16 14:43 51.15694 -0.17488 208 ft 8 kts 166°
2026-04-16 14:43 51.15630 -0.17466 208 ft 10 kts 167°
2026-04-16 14:43 51.15558 -0.17440 208 ft 11 kts 167°
2026-04-16 14:44 51.15479 -0.17413 204 ft 12 kts 168°
2026-04-16 14:44 51.15396 -0.17385 204 ft 12 kts 168°
2026-04-16 14:44 51.15310 -0.17355 210 ft 13 kts 168°
2026-04-16 14:44 51.15238 -0.17287 204 ft 12 kts 101°
2026-04-16 14:45 51.15258 -0.17152 204 ft 13 kts 79°
2026-04-16 14:45 51.15276 -0.17012 210 ft 13 kts 77°
2026-04-16 14:45 51.15292 -0.16871 204 ft 13 kts 93°
2026-04-16 14:45 51.15227 -0.16807 210 ft 12 kts 169°
2026-04-16 14:46 51.15139 -0.16791 207 ft 13 kts 197°
2026-04-16 14:46 51.15105 -0.16920 204 ft 14 kts 257°
2026-04-16 14:46 51.15049 -0.17322 205 ft 72 kts 257°
2026-04-16 14:46 51.14893 -0.18456 206 ft 135 kts 257°
2026-04-16 14:47 51.14663 -0.20120 490 ft 157 kts 253°
2026-04-16 14:47 51.14433 -0.21803 1280 ft 155 kts 254°
2026-04-16 14:47 51.14187 -0.23536 1792 ft 169 kts 253°
2026-04-16 14:47 51.13914 -0.25488 2141 ft 193 kts 255°
2026-04-16 14:48 51.13688 -0.27702 2698 ft 210 kts 269°
2026-04-16 14:48 51.14100 -0.29976 3561 ft 222 kts 298°
2026-04-16 14:48 51.15234 -0.31693 4421 ft 234 kts 330°
2026-04-16 14:48 51.16851 -0.32219 5285 ft 246 kts
2026-04-16 14:49 51.18441 -0.31155 6121 ft 257 kts 40°
2026-04-16 14:49 51.19372 -0.28784 6937 ft 259 kts 76°
2026-04-16 14:49 51.19601 -0.25859 7451 ft 277 kts 95°
2026-04-16 14:49 51.19499 -0.22692 8027 ft 292 kts 96°
2026-04-16 14:50 51.19393 -0.19413 8823 ft 300 kts 94°
2026-04-16 14:50 51.19326 -0.16065 9690 ft 305 kts 94°
2026-04-16 14:50 51.19282 -0.12655 10421 ft 315 kts 93°
2026-04-16 14:50 51.19240 -0.09028 10712 ft 339 kts 93°
2026-04-16 14:51 51.19195 -0.05151 11054 ft 358 kts 93°
2026-04-16 14:51 51.19146 -0.01135 11710 ft 366 kts 93°
2026-04-16 14:51 51.19090 0.02932 12300 ft 371 kts 93°
2026-04-16 14:51 51.19028 0.07077 13034 ft 375 kts 93°
2026-04-16 14:53 51.18504 0.37327 17377 ft 405 kts 93°
2026-04-16 14:53 51.18416 0.41841 17990 ft 410 kts 93°
2026-04-16 14:54 51.18327 0.46402 18531 ft 414 kts 93°
2026-04-16 14:54 51.18236 0.51010 19068 ft 418 kts 93°
2026-04-16 14:54 51.18146 0.55657 19602 ft 422 kts 92°
2026-04-16 14:54 51.18054 0.60356 20172 ft 426 kts 92°
2026-04-16 14:55 51.17960 0.65095 20744 ft 430 kts 92°
2026-04-16 14:55 51.17861 0.69874 21313 ft 434 kts 92°
2026-04-16 14:55 51.17756 0.74705 21870 ft 438 kts 93°
2026-04-16 14:55 51.17651 0.79510 22409 ft 441 kts 92°
2026-04-16 14:56 51.17541 0.84416 22942 ft 445 kts 93°
2026-04-16 14:56 51.17425 0.89368 23459 ft 449 kts 93°
2026-04-16 14:56 51.17307 0.94364 23986 ft 453 kts 93°
2026-04-16 14:56 51.17185 0.99393 24389 ft 456 kts 92°
2026-04-16 14:57 51.17063 1.04458 24781 ft 459 kts 92°
2026-04-16 14:57 51.16938 1.09562 25145 ft 463 kts 92°
2026-04-16 14:57 51.16811 1.14702 25510 ft 466 kts 92°
2026-04-16 14:57 51.16678 1.19883 25868 ft 470 kts 93°
2026-04-16 14:58 51.16542 1.25099 26226 ft 473 kts 93°
2026-04-16 14:58 51.16263 1.35638 26949 ft 480 kts 93°
2026-04-16 14:58 51.16088 1.40965 27301 ft 483 kts 94°
2026-04-16 14:59 51.15854 1.46318 27643 ft 486 kts 95°
2026-04-16 14:59 51.15578 1.51705 27982 ft 490 kts 95°
2026-04-16 14:59 51.15284 1.57132 28323 ft 493 kts 95°
2026-04-16 14:59 51.14986 1.62586 28654 ft 496 kts 95°
2026-04-16 15:00 51.14693 1.68077 28975 ft 499 kts 95°
2026-04-16 15:00 51.14410 1.73609 29289 ft 503 kts 95°
2026-04-16 15:00 51.14132 1.79169 29594 ft 506 kts 95°
2026-04-16 15:00 51.13860 1.84695 29894 ft 509 kts 95°
2026-04-16 15:01 51.13580 1.90318 30200 ft 511 kts 95°
2026-04-16 15:01 51.13287 1.95982 30477 ft 514 kts 95°
2026-04-16 15:01 51.12987 2.01662 30731 ft 516 kts 95°
2026-04-16 15:01 51.12683 2.07368 30992 ft 518 kts 95°
2026-04-16 15:02 51.12383 2.13084 31348 ft 518 kts 95°
2026-04-16 15:02 51.12083 2.18797 31714 ft 518 kts 95°
2026-04-16 15:02 51.11777 2.24500 32075 ft 517 kts 95°
2026-04-16 15:02 51.11463 2.30232 32260 ft 521 kts 95°
2026-04-16 15:03 51.11143 2.35984 32518 ft 523 kts 95°
2026-04-16 15:03 51.10815 2.41755 32824 ft 524 kts 95°
2026-04-16 15:03 51.10482 2.47530 33147 ft 524 kts 95°
2026-04-16 15:03 51.10147 2.53306 33485 ft 524 kts 95°
2026-04-16 15:04 51.09812 2.59068 33824 ft 524 kts 95°
2026-04-16 15:04 51.09378 2.64836 34168 ft 524 kts 101°
2026-04-16 15:04 51.08523 2.70462 34468 ft 523 kts 107°
2026-04-16 15:04 51.07516 2.76022 34780 ft 523 kts 107°
2026-04-16 15:05 51.06506 2.81564 35086 ft 522 kts 107°
2026-04-16 15:05 51.05493 2.87107 35206 ft 523 kts 107°
2026-04-16 15:05 51.04482 2.92657 35226 ft 524 kts 107°
2026-04-16 15:06 51.02462 3.03699 35227 ft 524 kts 107°
2026-04-16 15:06 51.00416 3.14805 35227 ft 524 kts 107°
2026-04-16 15:07 50.98362 3.25900 35225 ft 524 kts 107°
2026-04-16 15:07 50.96296 3.36987 35226 ft 524 kts 107°
2026-04-16 15:08 50.94218 3.48063 35217 ft 524 kts 107°
2026-04-16 15:08 50.92130 3.59145 35215 ft 524 kts 107°
2026-04-16 15:09 50.90038 3.70210 35219 ft 524 kts 107°
2026-04-16 15:09 50.87926 3.81264 35223 ft 525 kts 107°
2026-04-16 15:10 50.85794 3.92315 35222 ft 525 kts 107°
2026-04-16 15:10 50.83658 4.03362 35218 ft 525 kts 107°
2026-04-16 15:11 50.81534 4.14350 35219 ft 525 kts 107°
2026-04-16 15:11 50.79384 4.25378 35194 ft 525 kts 107°
2026-04-16 15:12 50.77231 4.36305 35219 ft 524 kts 108°
2026-04-16 15:12 50.75055 4.47274 35229 ft 523 kts 108°
2026-04-16 15:13 50.72879 4.58232 35232 ft 523 kts 108°
2026-04-16 15:13 50.70697 4.69178 35238 ft 523 kts 107°
2026-04-16 15:14 50.68501 4.80105 35232 ft 523 kts 107°
2026-04-16 15:14 50.66292 4.91021 35232 ft 523 kts 108°
2026-04-16 15:15 50.64069 5.01927 35226 ft 523 kts 108°
2026-04-16 15:15 50.61823 5.12822 35237 ft 523 kts 108°
2026-04-16 15:16 50.59568 5.23703 35229 ft 523 kts 107°
2026-04-16 15:16 50.57305 5.34589 35224 ft 524 kts 107°
2026-04-16 15:17 50.55030 5.45465 35222 ft 524 kts 108°
2026-04-16 15:17 50.53134 5.54504 35223 ft 524 kts 108°
2026-04-16 15:18 50.50480 5.67222 35201 ft 524 kts 106°
2026-04-16 15:18 50.48420 5.78189 35210 ft 523 kts 104°
2026-04-16 15:19 50.46777 5.87316 35212 ft 523 kts 104°
2026-04-16 15:19 50.44418 6.00057 35213 ft 523 kts 105°
2026-04-16 15:20 50.42332 6.10977 35220 ft 523 kts 105°
2026-04-16 15:20 50.40570 6.20123 35212 ft 523 kts 105°
2026-04-16 15:21 50.38471 6.31022 35201 ft 522 kts 105°
2026-04-16 15:21 50.36363 6.41824 35202 ft 522 kts 108°
2026-04-16 15:22 50.33776 6.52455 35206 ft 523 kts 110°
2026-04-16 15:22 50.31022 6.62997 35199 ft 523 kts 111°
2026-04-16 15:23 50.28269 6.73529 35203 ft 523 kts 111°
2026-04-16 15:23 50.25558 6.84089 35210 ft 523 kts 110°
2026-04-16 15:24 50.22864 6.94647 35232 ft 523 kts 110°
2026-04-16 15:24 50.20152 7.05185 35201 ft 523 kts 110°
2026-04-16 15:25 50.17415 7.15706 34960 ft 523 kts 110°
2026-04-16 15:25 50.16040 7.20962 34720 ft 524 kts 110°
2026-04-16 15:25 50.14661 7.26221 34481 ft 525 kts 110°
2026-04-16 15:25 50.13275 7.31498 33954 ft 527 kts 110°
2026-04-16 15:26 50.11875 7.36830 32708 ft 535 kts 111°
2026-04-16 15:26 50.10475 7.42151 32106 ft 528 kts 111°
2026-04-16 15:26 50.09084 7.47434 31289 ft 526 kts 111°
2026-04-16 15:26 50.07699 7.52685 30476 ft 523 kts 112°
2026-04-16 15:27 50.06337 7.57839 29513 ft 521 kts 112°
2026-04-16 15:27 50.04954 7.63051 28405 ft 521 kts 112°
2026-04-16 15:27 50.03566 7.68260 27277 ft 521 kts 112°
2026-04-16 15:27 50.02177 7.73470 26095 ft 522 kts 112°
2026-04-16 15:28 50.00781 7.78686 24888 ft 523 kts 113°
2026-04-16 15:28 49.99384 7.83887 23949 ft 518 kts 113°
2026-04-16 15:28 49.98001 7.89029 23033 ft 512 kts 113°
2026-04-16 15:28 49.96640 7.94086 22124 ft 505 kts 113°
2026-04-16 15:29 49.95296 7.99080 21265 ft 497 kts 113°
2026-04-16 15:29 49.93967 8.04002 20432 ft 491 kts 113°
2026-04-16 15:29 49.92652 8.08855 19631 ft 485 kts 113°
2026-04-16 15:29 49.91351 8.13647 18860 ft 479 kts 113°
2026-04-16 15:30 49.90068 8.18379 18061 ft 473 kts 112°
2026-04-16 15:30 49.89118 8.23215 17286 ft 466 kts 101°
2026-04-16 15:30 49.88804 8.28160 16538 ft 458 kts 89°
2026-04-16 15:30 49.89124 8.33024 15812 ft 451 kts 77°
2026-04-16 15:31 49.90029 8.37628 15089 ft 443 kts 67°
2026-04-16 15:31 49.91120 8.42080 14384 ft 439 kts 67°
2026-04-16 15:31 49.92187 8.46495 13693 ft 435 kts 68°
2026-04-16 15:31 49.93233 8.50865 12984 ft 430 kts 68°
2026-04-16 15:32 49.94267 8.55185 12392 ft 423 kts 68°
2026-04-16 15:32 49.95268 8.59375 12246 ft 405 kts 69°
2026-04-16 15:32 49.96223 8.63378 12115 ft 386 kts 69°
2026-04-16 15:32 49.97135 8.67208 11985 ft 369 kts 69°
2026-04-16 15:33 49.98006 8.70869 11860 ft 354 kts 69°
2026-04-16 15:33 49.98836 8.74365 11724 ft 335 kts 69°
2026-04-16 15:33 49.99609 8.77631 11556 ft 319 kts 69°
2026-04-16 15:33 50.00367 8.80827 11141 ft 312 kts 69°
2026-04-16 15:34 50.01112 8.83972 10649 ft 309 kts 69°
2026-04-16 15:34 50.01847 8.87087 10204 ft 304 kts 70°
2026-04-16 15:34 50.02566 8.90138 9753 ft 298 kts 70°
2026-04-16 15:34 50.03276 8.93150 9229 ft 295 kts 69°
2026-04-16 15:35 50.03982 8.96132 8710 ft 293 kts 69°
2026-04-16 15:35 50.04682 8.99089 8181 ft 290 kts 69°
2026-04-16 15:35 50.05373 9.02025 7659 ft 287 kts 69°
2026-04-16 15:35 50.06057 9.04934 7138 ft 285 kts 69°
2026-04-16 15:36 50.06739 9.07814 6652 ft 282 kts 68°
2026-04-16 15:36 50.07500 9.10603 6097 ft 278 kts 57°
2026-04-16 15:36 50.08834 9.12689 5547 ft 271 kts 28°
2026-04-16 15:36 50.10601 9.13523 5011 ft 265 kts 359°
2026-04-16 15:37 50.12387 9.13046 4427 ft 260 kts 335°
2026-04-16 15:37 50.13850 9.11475 4052 ft 252 kts 310°
2026-04-16 15:37 50.14725 9.09281 3996 ft 227 kts 289°
2026-04-16 15:37 50.15027 9.06979 4000 ft 213 kts 270°
2026-04-16 15:38 50.14846 9.04706 4001 ft 213 kts 252°
2026-04-16 15:38 50.14344 9.02534 4002 ft 213 kts 250°
2026-04-16 15:38 50.13839 9.00362 4002 ft 213 kts 250°
2026-04-16 15:38 50.13333 8.98192 4003 ft 212 kts 250°
2026-04-16 15:39 50.12828 8.96034 4003 ft 213 kts 250°
2026-04-16 15:39 50.12321 8.93869 4006 ft 212 kts 250°
2026-04-16 15:39 50.11823 8.91741 4004 ft 211 kts 250°
2026-04-16 15:39 50.11312 8.89563 4006 ft 212 kts 250°
2026-04-16 15:40 50.10811 8.87433 4005 ft 212 kts 250°
2026-04-16 15:40 50.10303 8.85268 3873 ft 212 kts 250°
2026-04-16 15:40 50.09796 8.83115 3631 ft 212 kts 250°
2026-04-16 15:40 50.09290 8.80971 3379 ft 211 kts 250°
2026-04-16 15:41 50.08784 8.78822 3082 ft 211 kts 250°
2026-04-16 15:41 50.08277 8.76674 2805 ft 211 kts 249°
2026-04-16 15:41 50.07780 8.74574 2514 ft 203 kts 250°
2026-04-16 15:41 50.07339 8.72545 2294 ft 190 kts 253°
2026-04-16 15:42 50.07070 8.70648 2179 ft 170 kts 261°
2026-04-16 15:42 50.06909 8.68906 1963 ft 157 kts 256°
2026-04-16 15:42 50.06567 8.67334 1676 ft 152 kts 249°
2026-04-16 15:42 50.06213 8.65818 1421 ft 147 kts 249°
2026-04-16 15:43 50.05846 8.64345 1194 ft 147 kts 249°
2026-04-16 15:43 50.05479 8.62861 988 ft 148 kts 251°
2026-04-16 15:43 50.05141 8.61323 805 ft 150 kts 252°
2026-04-16 15:43 50.04772 8.59797 591 ft 150 kts 252°
2026-04-16 15:44 50.04418 8.58301 385 ft 142 kts 251°
2026-04-16 15:44 50.04113 8.57026 364 ft 104 kts 250°
2026-04-16 15:44 50.03988 8.56460 353 ft 28 kts 263°
2026-04-16 15:44 50.04007 8.56224 351 ft 16 kts 280°
2026-04-16 15:45 50.04035 8.56140 355 ft 1 kts 327°
2026-04-16 15:45 50.04041 8.56135 355 ft 1 kts 327°
2026-04-16 15:45 50.04048 8.56128 351 ft 2 kts 339°
2026-04-16 15:45 50.04059 8.56131 356 ft 2 kts 10°
2026-04-16 15:46 50.04082 8.56139 359 ft 5 kts 22°
2026-04-16 15:46 50.04108 8.56186 354 ft 7 kts 63°
2026-04-16 15:46 50.04125 8.56268 356 ft 9 kts 72°
2026-04-16 15:46 50.04147 8.56361 358 ft 9 kts 70°
2026-04-16 15:47 50.04168 8.56450 354 ft 9 kts 69°
2026-04-16 15:47 50.04189 8.56536 358 ft 8 kts 69°
2026-04-16 15:47 50.04210 8.56621 359 ft 9 kts 69°
2026-04-16 15:47 50.04231 8.56712 360 ft 9 kts 70°
2026-04-16 15:48 50.04260 8.56800 359 ft 9 kts 33°
2026-04-16 15:48 50.04316 8.56818 360 ft 8 kts
2026-04-16 15:48 50.04379 8.56835 360 ft 10 kts
2026-04-16 15:48 50.04454 8.56862 361 ft 11 kts 30°
2026-04-16 15:49 50.04486 8.56979 361 ft 14 kts 72°
2026-04-16 15:49 50.04520 8.57113 360 ft 11 kts 69°
2026-04-16 15:49 50.04542 8.57184 359 ft 5 kts 36°
2026-04-16 15:49 50.04574 8.57195 357 ft 2 kts
2026-04-16 15:50 50.04586 8.57195 357 ft 1 kts
2026-04-16 15:50 50.04595 8.57196 357 ft 2 kts
2026-04-16 15:50 50.04610 8.57197 360 ft 0 kts
2026-04-16 15:50 50.04613 8.57197 361 ft 0 kts